User: anonymous   Login
Location: Canazei
(46.4667°N, 11.7667°E)
Time: 01:19:19
(UTC+00:00)
Language:

CZ-4B R/B - Orbit

View from above orbital plane
View from above orbital plane
View from above satellite
View from above satellite

Ground track
Ground track

The orbit data is extracted from the following two-line orbital elements,

1 32959U 08026B   21174.52040951 -.00000018  00000-0  96253-5 0  9995
2 32959  98.8964 135.3817 0069137 272.4885 197.8399 14.41799977687773
Epoch (UTC): 23 June 2021 12:29:23
Eccentricity: 0.0069137
inclination: 98.8964°
perigee height: 703 km
apogee height: 802 km
right ascension of ascending node: 135.3817°
argument of perigee: 272.4885°
revolutions per day: 14.41799977
mean anomaly at epoch: 197.8399°
orbit number at epoch: 68777

The dashed part of the orbit path shows where the satellite is in the earth's shadow,  

DLR